Location: St Andrew
(49.4460°N, 2.5750°W)
Time: 16:32:21
(UTC+01:00)

Daily predictions for brighter satellites

Satellite Brightness Start Highest point End
(mag) Time Altitude Azimuth Time Altitude Azimuth Time Altitude Azimuth
Cosmos 1867 3.9 19:17:13 10° SW 19:22:40 73° NW 19:28:12 10° NE
Cosmos 1437 3.0 19:22:10 10° NNW 19:25:27 78° W 19:28:42 10° S
Cosmos 1943 Rocket 4.0 19:22:37 10° N 19:25:56 16° NNE 19:29:14 10° ENE
Cosmos 1441 Rocket 4.3 19:22:26 10° NNW 19:26:05 49° W 19:29:41 10° S
Cosmos 1953 3.6 19:23:11 10° SE 19:26:08 20° E 19:29:04 10° NE
Spot 2 Rocket 3.8 19:22:10 10° SE 19:26:58 47° ENE 19:31:49 10° N
Cosmos 2056 Rocket 3.9 19:21:40 10° NNW 19:27:07 76° WSW 19:32:31 10° SSE
Resurs 1-3 4.3 19:24:26 10° SE 19:28:24 35° ENE 19:32:24 10° N
Resurs 01 Rocket 2.0 19:24:23 10° SE 19:28:35 43° ENE 19:32:49 10° N
Meteor 1-28 Rocket 3.6 19:26:27 10° NNE 19:30:00 39° E 19:33:29 10° SSE
NOSS 0 Rocket 4.1 19:23:58 10° SSW 19:30:09 81° WNW 19:36:24 10° NNE
COSMOS 2455 3.8 19:24:30 10° WSW 19:30:23 52° NW 19:36:18 10° NNE
Cosmos 1805 4.4 19:29:24 10° SE 19:32:29 22° E 19:35:35 10° NE
USA 215 4.0 19:27:34 10° ENE 19:33:14 31° SE 19:38:52 10° S
H-2A R/B 4.2 19:30:30 10° ESE 19:33:24 20° ENE 19:36:18 10° NNE
SAR-Lupe-4 3.9 19:35:41 10° S 19:39:15 71° WSW 19:42:51 10° NNW
Cosmos 1707 4.2 19:36:10 10° NNW 19:39:50 42° W 19:43:29 10° SSW
Timation 1 Rocket 4.5 19:33:59 10° NNW 19:39:59 83° WSW 19:45:57 10° SSE
Helios 1A 3.1 19:38:55 10° SE 19:42:59 52° ENE 19:47:05 10° N
Cosmos 2333 Rocket 2.8 19:37:54 10° SW 19:43:38 63° WNW 19:49:23 10° NNE
In-Cosmos 22 4.3 19:43:40 10° N 19:49:27 70° ENE 19:55:12 10° SSE
Cosmos 1346 3.9 19:47:41 10° N 19:50:23 30° ENE 19:53:03 10° SE
COSMO-SKYMED 1 3.2 19:46:10 10° N 19:50:29 62° WNW 19:54:46 10° SSW
NOAA 12 4.3 19:45:17 10° SSE 19:50:33 80° WSW 19:55:53 10° NNW
ERBS 4.0 19:47:50 10° NW 19:50:48 25° N 19:53:37 11° ENE
FengYun 1-2 T 4.3 19:46:17 10° SSE 19:51:42 61° ENE 19:57:06 10° N
ATLAS 3B R/B 3.7 19:44:52 10° WSW 19:52:16 54° NW 19:59:24 10° NE
CZ-4C R/B 2.6 19:48:41 10° SW 19:54:10 72° NW 20:00:27 10° NE
TELKOM 3 3.5 19:51:38 10° W 19:54:41 58° SSW 19:56:16 17° ESE
Cosmos 1470 4.3 19:52:50 12° ESE 19:54:46 17° E 19:57:17 10° NE
Cosmos 292 Rocket 4.4 19:50:39 10° SW 19:55:24 61° WNW 20:00:14 10° NNE
Cosmos 192 4.4 19:51:43 10° S 19:56:33 57° ESE 20:01:26 10° NNE
SJ-6B 3.6 19:53:15 10° S 19:57:11 58° W 20:01:14 10° NNW
Cosmos 2034 Rocket 4.1 19:52:54 10° SSE 19:58:59 56° E 20:05:11 10° NNE
Spot 1 4.3 19:54:23 10° SSE 19:59:05 83° WSW 20:03:33 10° NNW
Cosmos 1464 Rocket 3.9 19:54:44 10° S 20:00:58 75° E 20:07:08 10° NNE
Meteor 1-21 Rocket 4.1 19:58:28 10° N 20:04:04 69° ENE 20:09:34 10° SSE
Cosmos 2237 Rocket 3.2 20:01:59 10° SW 20:07:31 50° NW 20:13:03 10° NNE
Cosmos 1758 3.4 20:04:04 10° S 20:08:03 55° E 20:12:05 10° NNE
NOSS 3-2 (A) 3.5 20:04:29 10° SSW 20:10:36 71° SE 20:17:20 10° NE
Cosmos 1766 Rocket 3.7 20:06:18 10° NNW 20:10:43 78° W 20:15:03 10° S
ATLAS 5 CENTAUR R/B 2.1 20:07:18 10° SSW 20:11:56 47° ESE 20:16:57 10° NE
Cosmos 1674 3.1 20:10:14 10° N 20:13:58 42° ENE 20:16:41 17° SE
ALOS 2.2 20:10:26 10° SSE 20:15:04 69° ENE 20:19:44 10° N
SeaSat 1 3.5 20:11:46 10° NE 20:15:33 21° ESE 20:19:17 10° SSE
HJ-1C 4.1 20:12:48 10° S 20:16:07 56° W 20:19:28 10° NNW
USA 238 DEB 4.2 20:10:05 10° WSW 20:17:04 63° NW 20:24:05 10° NE
USA 238 4.2 20:10:10 10° WSW 20:17:10 64° NW 20:24:12 10° NE
ERS-1 Rocket 4.0 20:15:04 20° ESE 20:17:21 28° ENE 20:21:35 10° N
Aureole 2 Rocket 3.5 20:16:02 10° SW 20:20:23 62° WNW 20:24:36 10° NNE
Helios 1B rocket 2.3 20:16:26 10° NNE 20:20:34 78° ESE 20:24:41 10° S
H-2A R/B 3.9 20:20:21 15° ENE 20:20:47 15° NE 20:23:17 10° NNE
Cosmos 1452 Rocket 4.1 20:18:32 10° NNW 20:23:42 58° WSW 20:28:50 10° S
SL-16 R/B 2.5 20:21:40 10° SW 20:27:20 72° WNW 20:33:04 10° NNE
Meteor 1-29 2.9 20:25:13 10° NNE 20:28:46 84° ESE 20:32:16 10° SSW
Cosmos-2242 3.0 20:28:56 10° S 20:33:18 89° ESE 20:37:45 10° N
Cosmos 1939 Rocket 3.8 20:35:03 28° ENE 20:35:16 28° ENE 20:38:41 10° N
Cosmos 1328 4.3 20:31:37 10° N 20:35:22 38° ENE 20:35:59 35° E
Cosmos 482 Debris 4.1 20:37:03 10° WNW 20:39:20 47° N 20:39:56 39° NE
Cosmos 2151 3.2 20:38:30 10° N 20:42:35 46° ENE 20:43:28 39° ESE
Exosat Rocket 4.5 20:36:34 10° NNW 20:42:42 60° ENE 20:48:04 23° SE
Cosmos 1500 Rocket 3.5 20:40:05 10° N 20:44:32 87° E 20:47:54 17° S
Cosmos 468 4.4 20:39:34 10° SSW 20:44:48 76° ESE 20:50:04 10° NNE
CENTAUR R/B 3.1 20:40:30 10° S 20:45:52 32° ESE 20:51:48 10° NE
Cosmos 1420 Rocket 4.4 20:40:48 10° NNW 20:46:03 65° WSW 20:51:02 11° S
SL-14 R/B 4.2 20:42:26 10° N 20:45:45 31° ENE 20:45:45 31° ENE
CZ-4B DEB 3.8 20:44:24 12° S 20:47:15 48° W 20:50:27 10° NNW
Cosmos 1842 Rocket 3.4 20:43:18 10° S 20:47:34 63° E 20:51:54 10° NNE
NOSS 3-2 (C) 3.5 20:42:35 10° SW 20:48:47 88° NW 20:55:41 10° NE
Cosmos 1331 Rocket 4.4 20:44:29 10° NNW 20:49:37 45° ENE 20:51:05 36° E
FENGYUN 3A 4.0 20:45:35 10° S 20:50:55 64° WSW 20:56:19 10° NNW
CZ-2D R/B 3.7 20:47:42 14° S 20:51:01 62° W 20:54:54 10° NNW
Cosmos 2058 3.4 20:47:48 10° N 20:51:27 38° ENE 20:51:27 38° ENE
CZ-4 DEB 4.3 20:54:58 24° NNE 20:54:58 24° NNE 20:56:35 10° N
USA 186 3.0 20:56:55 28° NW 20:56:55 28° NW 20:58:19 10° NNW
ASTEX 1 3.4 20:52:23 10° N 20:57:20 81° W 21:02:14 10° SSW
Cosmos 1544 3.8 20:57:13 10° SSW 21:00:54 55° WNW 21:04:37 10° N
BREEZE-M DEB (TANK) 4.1 20:49:04 10° WSW 21:01:00 77° SSE 21:02:54 39° E
SJ-11-01 4.2 21:00:33 45° SE 21:01:54 69° ENE 21:06:35 10° N
Cosmos 1953 3.8 20:58:35 10° SW 21:02:20 39° WNW 21:06:06 10° N
Resurs 01 Rocket 3.9 21:01:39 10° SSW 21:05:15 24° W 21:08:53 10° NW
Cosmos 2369 Rocket 2.2 21:00:36 10° NNW 21:06:17 83° WSW 21:08:51 34° SSE
Cosmos 1269 Rocket 3.9 21:01:47 10° SSW 21:07:04 89° ESE 21:12:24 10° NNE
H-2A R/B 3.9 21:04:22 14° SSW 21:07:28 42° W 21:11:11 10° NNW
Cosmos 1655 Rocket 3.9 21:02:55 10° N 21:09:09 67° ENE 21:11:36 38° SSE
Cosmos 1048 Rocket 3.9 21:04:11 10° SSW 21:09:28 82° ESE 21:14:44 10° NNE
Cosmos 2279 Rocket 4.2 21:09:21 43° ESE 21:10:17 46° E 21:16:10 10° NNE
Cosmos 2263 4.1 21:04:42 10° NNW 21:10:33 81° ENE 21:12:26 45° SE
Cosmos 1943 3.2 21:05:20 10° S 21:10:44 50° ESE 21:16:11 10° NE
Cosmos 1943 Rocket 2.3 21:05:28 10° NNW 21:11:02 55° NE 21:12:03 48° E
Cosmos 724 4.3 21:05:16 10° SW 21:11:15 87° NW 21:17:26 10° NE
Cosmos 1092 Rocket 4.3 21:05:37 10° NNW 21:11:48 67° W 21:17:53 10° S
Cosmos 1603 3.8 21:08:54 10° SSW 21:14:39 77° WNW 21:20:27 10° NNE
Envisat 2.9 21:15:40 57° SE 21:16:37 72° ENE 21:21:42 10° N
USA 215 3.1 21:11:26 16° ENE 21:16:49 86° SSE 21:23:23 10° WSW
H-2A R/B 3.8 21:20:29 17° NE 21:20:29 17° NE 21:22:58 10° NNE
Cosmos 2142 Rocket 4.4 21:15:06 10° S 21:21:29 83° E 21:27:55 10° N
Meteor 2-1 Rocket 4.4 21:24:21 52° E 21:24:21 52° E 21:29:50 10° NNE
MetOp-B 4.4 21:26:02 50° ENE 21:26:02 50° ENE 21:31:08 10° N
SPOT 5 3.5 21:27:14 38° NNE 21:27:14 38° NNE 21:30:18 10° N
Cosmos 2026 Rocket 3.9 21:20:27 10° N 21:26:34 87° W 21:29:12 37° S
ERBS 3.6 21:24:36 10° NW 21:27:03 39° NNW 21:27:03 39° NNW
GP-B 3.6 21:24:52 10° N 21:29:15 57° W 21:31:07 32° SSW
Aureole 3 4.3 21:23:02 10° N 21:29:41 60° ENE 21:30:04 59° E
Cosmos 1470 3.8 21:28:06 19° SW 21:30:33 45° WNW 21:34:19 10° N
Cosmos 1428 Rocket 4.4 21:24:24 10° N 21:30:41 71° ENE 21:31:54 57° SE
Cosmos 1634 Rocket 4.0 21:25:02 10° SSW 21:31:17 81° W 21:37:31 10° N
Sich 1 4.0 21:31:43 10° N 21:34:38 38° NNE 21:34:38 38° NNE
Meteor 1-11 4.4 21:33:08 10° NNW 21:38:56 72° W 21:40:42 46° SSW
Cosmos 1733 4.4 21:39:31 39° W 21:40:05 42° WNW 21:43:48 10° N
SPOT 1/Viking Rocket 4.3 21:43:13 40° NE 21:43:13 40° NE 21:47:06 10° N
Cosmos 158 Rocket 4.5 21:43:55 45° NNE 21:43:55 45° NNE 21:47:19 10° NNE
CZ-4C R/B 4.1 21:38:46 10° WNW 21:43:48 28° NNW 21:49:26 10° NE
Meteor 1-16 Rocket 4.0 21:44:46 70° SSW 21:45:23 83° WNW 21:50:46 10° N
SeaSat 1 2.7 21:48:33 10° NNE 21:53:29 68° NW 21:58:23 10° SW
Cosmos 1805 Rocket 4.4 21:51:28 10° NNW 21:55:03 50° NW 21:55:03 50° NW
ERS-1 Rocket 3.7 21:55:05 43° SW 21:55:55 48° W 22:00:48 10° NNW
H-2A R/B 3.0 21:57:30 46° NNW 21:57:30 46° NNW 22:00:42 10° NNW
ATLAS 5 CENTAUR R/B 3.2 21:52:01 10° WSW 21:56:44 40° NW 22:01:36 11° NE
Meteor 2-20 Rocket 4.4 22:01:58 10° NNW 22:08:11 83° W 22:08:11 83° W
MetOp-A 4.4 22:12:51 64° WNW 22:12:51 64° WNW 22:17:35 10° NNW
Cosmos 2221 4.4 22:18:13 27° NNW 22:18:13 27° NNW 22:20:30 10° N
ARGOS 3.8 22:19:53 52° N 22:19:53 52° N 22:23:59 10° NNW
Cosmos 1656 Rocket 4.2 22:14:32 10° NNW 22:18:38 52° NNW 22:18:38 52° NNW
Terra 3.8 22:34:45 22° N 22:34:45 22° N 22:36:33 10° N
CENTAUR R/B 2.8 22:29:45 10° SW 22:36:02 67° NW 22:43:12 10° NE
Cosmos 1980 Rocket 4.3 22:34:05 10° N 22:37:14 16° NNE 22:37:14 16° NNE
Cosmos 1943 Rocket 3.8 22:49:44 10° NW 22:53:36 27° W 22:53:36 27° W
H-2A R/B 3.8 23:01:07 28° NNW 23:01:07 28° NNW 23:03:30 10° NNW
USA 215 3.8 22:58:49 50° N 22:59:37 52° NNW 23:05:55 10° W
CZ-4C R/B 4.4 23:29:19 10° NW 23:34:25 25° N 23:36:26 22° NE
ATLAS 3B R/B 4.2 23:31:28 10° NW 23:37:37 28° NNE 23:38:40 27° NNE
ATLAS 5 CENTAUR R/B 4.3 23:38:59 10° WNW 23:42:55 20° N 23:43:10 20° N
